DAL584 TXKF-KATL

Flight info

Callsign DAL584
Flight time N/A
Altitude 38000
Route SOMRR1 ANTIG M328 GRAMN DCT GALVN L375 JAINS/N0453F380 Y436 DEDDY DCT HOTHH JJEDI
Aircraft A319/M-V/N

Departure

Time 2026-04-30 22:38
Airport L.F. Wade International Airport (TXKF)

Arrival

Time N/A
Airport Hartsfield Jackson Atlanta International Airport (KATL)
Time Latitude Longitude Altitude Speed Heading
2026-04-30 22:16 32.36226 -64.70310 24 ft 0 kts 247°
2026-04-30 22:26 32.36234 -64.70283 24 ft 3 kts 255°
2026-04-30 22:26 32.36239 -64.70260 24 ft 3 kts 264°
2026-04-30 22:26 32.36240 -64.70236 24 ft 3 kts 274°
2026-04-30 22:27 32.36237 -64.70212 24 ft 3 kts 287°
2026-04-30 22:27 32.36230 -64.70190 26 ft 3 kts 301°
2026-04-30 22:27 32.36203 -64.70157 26 ft 2 kts 334°
2026-04-30 22:28 32.36199 -64.70154 24 ft 0 kts 337°
2026-04-30 22:30 32.36287 -64.70073 26 ft 18 kts 62°
2026-04-30 22:31 32.36471 -64.69580 25 ft 18 kts 68°
2026-04-30 22:32 32.36580 -64.69273 27 ft 9 kts 62°
2026-04-30 22:32 32.36678 -64.68994 27 ft 28 kts 67°
2026-04-30 22:33 32.36642 -64.68442 27 ft 21 kts 103°
2026-04-30 22:33 32.36572 -64.68021 27 ft 25 kts 101°
2026-04-30 22:34 32.36485 -64.67519 27 ft 17 kts 101°
2026-04-30 22:35 32.36439 -64.67253 27 ft 21 kts 101°
2026-04-30 22:36 32.36284 -64.66418 27 ft 20 kts 111°
2026-04-30 22:36 32.36237 -64.66329 28 ft 0 kts 155°
2026-04-30 22:37 32.36158 -64.66346 29 ft 14 kts 220°
2026-04-30 22:37 32.36150 -64.66391 29 ft 1 kts 280°
2026-04-30 22:37 32.36268 -64.67096 28 ft 110 kts 282°
2026-04-30 22:38 32.36690 -64.69411 723 ft 153 kts 280°
2026-04-30 22:38 32.37269 -64.72009 1815 ft 178 kts 285°
2026-04-30 22:39 32.37520 -64.73513 2359 ft 194 kts 280°
2026-04-30 22:39 32.38310 -64.78818 4191 ft 243 kts 282°
2026-04-30 22:40 32.38461 -64.84968 6574 ft 257 kts 268°
2026-04-30 22:41 32.38121 -64.91437 9042 ft 268 kts 269°
2026-04-30 22:41 32.37888 -64.95931 10250 ft 277 kts 269°
2026-04-30 22:42 32.37378 -65.05769 12531 ft 323 kts 268°
2026-04-30 22:43 32.37172 -65.11247 13656 ft 342 kts 271°
2026-04-30 22:43 32.37190 -65.16990 14694 ft 353 kts 272°
2026-04-30 22:44 32.37238 -65.22838 15777 ft 356 kts 272°
2026-04-30 22:45 32.37255 -65.34599 18564 ft 359 kts 271°
2026-04-30 22:45 32.37246 -65.40507 19861 ft 359 kts 271°
2026-04-30 22:46 32.37237 -65.46429 21161 ft 360 kts 271°
2026-04-30 22:47 32.37202 -65.58323 23703 ft 361 kts 271°
2026-04-30 22:47 32.37180 -65.64250 24833 ft 359 kts 271°
2026-04-30 22:48 32.37164 -65.70120 26005 ft 355 kts 272°
2026-04-30 22:49 32.37195 -65.78902 27512 ft 358 kts 272°
2026-04-30 22:49 32.37232 -65.87727 28995 ft 360 kts 272°
2026-04-30 22:50 32.37237 -65.99837 29930 ft 387 kts 272°
2026-04-30 22:51 32.37243 -66.06372 29946 ft 407 kts 272°
2026-04-30 22:51 32.37248 -66.13051 30774 ft 404 kts 272°
2026-04-30 22:52 32.37244 -66.16373 31206 ft 402 kts 272°
2026-04-30 22:52 32.37234 -66.22960 32070 ft 399 kts 272°
2026-04-30 22:53 32.37226 -66.29524 32881 ft 398 kts 272°
2026-04-30 22:53 32.37220 -66.36070 33721 ft 396 kts 272°
2026-04-30 22:53 32.37211 -66.39320 34115 ft 395 kts 272°
2026-04-30 22:54 32.36892 -66.45792 34861 ft 395 kts 261°
2026-04-30 22:55 32.33359 -66.54624 35873 ft 403 kts 241°
2026-04-30 22:55 32.30245 -66.60262 35931 ft 415 kts 241°
2026-04-30 22:56 32.27062 -66.66014 36444 ft 413 kts 241°
2026-04-30 22:56 32.22383 -66.74428 37609 ft 403 kts 240°
2026-04-30 22:57 32.19313 -66.79947 37938 ft 408 kts 240°
2026-04-30 22:58 32.13008 -66.91310 37933 ft 416 kts 240°
2026-04-30 22:59 32.03457 -67.08431 37942 ft 417 kts 240°